"Pseudo-MPEC" for C14XC15

Created 2025 Jul 16 10:35:03 UT using Find_Orb

Click here for an explanation of pseudo-MPECs

 
 Astrometry: 
     C14XC15* C2025 07 06.30709621 07 05.790-08 24 32.08   ~768Z       VNEOCPV00
     C14XC15  C2025 07 06.31269421 07 05.416-08 24 45.25   ~768Z 21.79GVNEOCPV00
     C14XC15  C2025 07 06.31828321 07 05.016-08 24 58.50   ~768Z 22.08GVNEOCPV00
     C14XC15  C2025 07 06.32386821 07 04.606-08 25 11.68   ~768Z 21.78GVNEOCPV00
     C14XC15  C2025 07 06.36577521 07 01.524-08 26 51.44   ~769Z 21.2 GWNEOCPH01
     C14XC15  C2025 07 06.36884021 07 01.370-08 26 58.30   ~769o 21.9 RVNEOCP291
     C14XC15  C2025 07 06.37026321 07 01.194-08 27 02.25   ~769Z 21.1 GWNEOCPH01
     C14XC15  C2025 07 06.37633021 07 00.840-08 27 16.30   ~769o 21.7 RVNEOCP291
     C14XC15  C2025 07 06.38356121 07 00.227-08 27 33.71   ~769Z 21.3 GWNEOCPH01
     C14XC15  C2025 07 06.38383021 07 00.290-08 27 33.80   ~769o 22.2 RVNEOCP291
     C14XC15  C2025 07 06.39123821 06 59.677-08 27 51.97   ~769Z 21.7 GWNEOCPH01
     C14XC15  C2025 07 07.41155021 05 48.910-09 08 54.80   ~77C5 22.0 RVNEOCP691
     C14XC15  C2025 07 07.41911021 05 48.310-09 09 12.60   ~77C5 22.2 RVNEOCP691
     C14XC15  C2025 07 07.42667021 05 47.760-09 09 31.60   ~77C5 21.3 RVNEOCP691
     C14XC15 |C2025 07 16.13708020 52 28.120-15 57 23.10   ~7G4Z 20.9 GVNEOCP807
     C14XC15 |C2025 07 16.14833020 52 26.770-15 57 58.60   ~7G4Z 21.3 GVNEOCP807
     C14XC15 |C2025 07 16.15976020 52 25.470-15 58 34.80   ~7G4Z 21.8 GVNEOCP807

Station data:
(291) LPL/Spacewatch II  (N31.961669 W111.599905)  US/Arizona.  Observers J.
   V. Scotti, R. S. McMillan. 1.8-m f/2.7 reflector + CCD.
(691) Steward Observatory, Kitt Peak - Spacewatch  (N31.962174 W111.600327)
   US/Arizona.  Observer J. V. Scotti. 0.9-m f/3 reflector + CCD.
(807) Cerro Tololo Observatory, La Serena  (S30.169133 W70.805900)  Chile.
   Observer R. Holmes. 0.61-m f/6.5 astrograph + CCD.
(H01) Magdalena Ridge Observatory, Socorro  (N33.984833 W107.189333)  US/New
   Mexico.  Observers W. H. Ryan, E. V. Ryan. Measurer W. H. Ryan. 2.4-m
   f/8.9 reflector + CCD.
(V00) Kitt Peak-Bok  (N31.963125 W111.600190)  US/Arizona.  Observers T. A.
   Pruyne, B. M. Africano, E. J. Christensen, G. A. Farneth, D. C. Fuls, A.
   R. Gibbs, A. D. Grauer, H. Gröller, J. A. Johnson, R. A. Kowalski, S. M.
   Larson, G. J. Leonard, D. Rankin, R. L. Seaman, F. C. Shelly, K. W.
   Wierzchoś. 2.25-m reflector + 4x4K mosaic CCD.

Orbital elements:  C14XC15
   Perihelion 2026 Jan 13.86873 +/- 0.18 TT = 20:50:58 (JD 2461054.36873)
Epoch 2025 Jul 16.0 TT = JDT 2460872.5   Earth MOID: 0.1334   Ma: 0.0788
M 223.27140047 +/- 0.52             (J2000 ecliptic)             AutoNEOCP
n   0.75179827 +/- 0.00234          Peri.  334.27346 +/- 0.26
a   1.19784833 +/- 0.00248          Node   120.13440 +/- 0.016
e   0.3081710 +/- 0.000962          Incl.   32.83471 +/- 0.24
P   1.311/478.843d         H 21.36  G  0.15   U  8.7
q 0.82870616 +/- 0.00069    Q 1.56699050 +/- 0.00437
From 17 observations 2025 July 6-16; mean residual 0".17
Residuals in arcseconds: 
250706 V00  .31-  .13-    250706 H01  .04-  .05-    250707 691  .24-  .39+    
250706 V00  .07+  .02-    250706 291  .20+  .14-    250707 691  .26+  .05-    
250706 V00  .06+  .02-    250706 H01  .10-  .02+    250716 807  .05-  .05-    
250706 V00  .09-  .04+    250706 291  .11+  .15+    250716 807  .36-  .05+    
250706 H01  .04+  .12+    250706 H01  .00   .04-    250716 807  .41+  .01+    
250706 291  .01+  .09+    250707 691  .00   .37-    

Ephemerides (geocentric):
Date (UTC) HH   RA             Dec           delta  r     elong  mag " sig PA
---- --------  ------------   ------------  ------ ------ -----  --- --------
2025 07 16 11  20 51 50.905   -16 14 23.07  .50325 1.5046 162.9 21.5 .155 114
2025 07 16 12  20 51 46.129   -16 16 35.22  .50304 1.5045 163.0 21.5 .168 117
2025 07 16 13  20 51 41.344   -16 18 47.48  .50283 1.5044 163.0 21.5 .181 119
2025 07 16 14  20 51 36.550   -16 20 59.87  .50261 1.5044 163.1 21.4 .195 121
2025 07 16 15  20 51 31.748   -16 23 12.37  .50240 1.5043 163.2 21.4 .209 123
2025 07 16 16  20 51 26.937   -16 25 25.00  .50219 1.5042 163.2 21.4 .223 125
2025 07 16 17  20 51 22.118   -16 27 37.74  .50198 1.5041 163.3 21.4 .238 126
2025 07 16 18  20 51 17.290   -16 29 50.60  .50177 1.5040 163.4 21.4 .253 128
2025 07 16 19  20 51 12.454   -16 32 03.58  .50156 1.5039 163.5 21.4 .269 129
2025 07 16 20  20 51 07.608   -16 34 16.67  .50135 1.5038 163.5 21.4 .284 130
2025 07 16 21  20 51 02.755   -16 36 29.89  .50114 1.5037 163.6 21.4 .300 131
2025 07 16 22  20 50 57.892   -16 38 43.22  .50093 1.5036 163.7 21.4 .316 132
2025 07 16 23  20 50 53.021   -16 40 56.67  .50072 1.5035 163.7 21.4 .332 133
2025 07 17 00  20 50 48.141   -16 43 10.23  .50051 1.5035 163.8 21.4 .348 134
2025 07 17 01  20 50 43.253   -16 45 23.92  .50031 1.5034 163.9 21.4 .365 135
2025 07 17 02  20 50 38.356   -16 47 37.71  .50010 1.5033 163.9 21.4 .382 135
2025 07 17 03  20 50 33.450   -16 49 51.63  .49989 1.5032 164.0 21.4 .399 136
2025 07 17 04  20 50 28.536   -16 52 05.66  .49969 1.5031 164.1 21.4 .416 137
2025 07 17 05  20 50 23.613   -16 54 19.81  .49948 1.5030 164.2 21.4 .433 137
2025 07 17 06  20 50 18.682   -16 56 34.07  .49928 1.5029 164.2 21.4 .451 138
2025 07 17 07  20 50 13.742   -16 58 48.44  .49908 1.5028 164.3 21.4 .469 139
2025 07 17 08  20 50 08.793   -17 01 02.93  .49887 1.5027 164.4 21.4 .487 139
2025 07 17 09  20 50 03.836   -17 03 17.54  .49867 1.5026 164.4 21.4 .505 140
2025 07 17 10  20 49 58.870   -17 05 32.26  .49847 1.5026 164.5 21.4 .524 140
2025 07 17 11  20 49 53.895   -17 07 47.09  .49826 1.5025 164.6 21.4 .542 141
2025 07 17 12  20 49 48.912   -17 10 02.03  .49806 1.5024 164.6 21.4 .561 141
2025 07 17 13  20 49 43.920   -17 12 17.09  .49786 1.5023 164.7 21.4 .580 141
2025 07 17 14  20 49 38.920   -17 14 32.26  .49766 1.5022 164.8 21.4 .599 142
2025 07 17 15  20 49 33.911   -17 16 47.55  .49746 1.5021 164.9 21.4 .618 142
2025 07 17 16  20 49 28.893   -17 19 02.94  .49726 1.5020 164.9 21.4 .638 143
2025 07 17 17  20 49 23.867   -17 21 18.45  .49706 1.5019 165.0 21.4 .658 143
2025 07 17 18  20 49 18.832   -17 23 34.07  .49687 1.5018 165.1 21.4 .678 143
2025 07 17 19  20 49 13.788   -17 25 49.80  .49667 1.5017 165.1 21.4 .698 144
2025 07 17 20  20 49 08.736   -17 28 05.64  .49647 1.5016 165.2 21.4 .718 144
2025 07 17 21  20 49 03.675   -17 30 21.60  .49628 1.5015 165.3 21.4 .739 145
2025 07 17 22  20 48 58.605   -17 32 37.66  .49608 1.5015 165.3 21.4 .760 145
2025 07 17 23  20 48 53.527   -17 34 53.83  .49588 1.5014 165.4 21.4 .781 145
2025 07 18 00  20 48 48.440   -17 37 10.11  .49569 1.5013 165.5 21.4 .802 146
2025 07 18 01  20 48 43.345   -17 39 26.50  .49549 1.5012 165.6 21.4 .823 146
2025 07 18 02  20 48 38.241   -17 41 43.00  .49530 1.5011 165.6 21.3 .845 146
2025 07 18 03  20 48 33.129   -17 43 59.61  .49511 1.5010 165.7 21.3 .867 146
2025 07 18 04  20 48 28.007   -17 46 16.33  .49491 1.5009 165.8 21.3 .889 147
2025 07 18 05  20 48 22.877   -17 48 33.15  .49472 1.5008 165.8 21.3 .911 147
2025 07 18 06  20 48 17.739   -17 50 50.09  .49453 1.5007 165.9 21.3 .933 147
2025 07 18 07  20 48 12.592   -17 53 07.13  .49434 1.5006 166.0 21.3 .956 148
2025 07 18 08  20 48 07.436   -17 55 24.27  .49415 1.5005 166.0 21.3 .979 148
2025 07 18 09  20 48 02.272   -17 57 41.53  .49396 1.5004 166.1 21.3 1.00 148
2025 07 18 10  20 47 57.099   -17 59 58.89  .49377 1.5004 166.2 21.3 1.02 148